This demonstration page uses our WeatherBlox Daily Observations layout. Learn more.

Left ArrowRight Arrow

39.01783, -85.05884

Hourly Observations for September 2, 2018

Temp ( °F °C ) Dew Point ( °F °C ) Humidity (%) Winds ( mph kmh ) Pressure ( in mb ) Visibility ( mi km ) Precip ( " mm )
12:52 am 00:52 Clear 73 22.8 71 21.7 94 94 S 5 7 30.10 1019 10 16 N/A
1:52 am 01:52 Mostly Clear 72 22.2 70 21.1 94 94 S 6 9 30.11 1020 10 16 N/A
2:52 am 02:52 Clear 72 22.2 70 21.1 94 94 N N/A 30.13 1020 10 16 N/A
3:52 am 03:52 Partly Cloudy 71 21.7 70 21.1 96 96 S 5 7 30.14 1021 10 16 N/A
4:52 am 04:52 Partly Cloudy 69 20.6 68 20 96 96 S 5 7 30.14 1021 10 16 N/A
5:52 am 05:52 Partly Cloudy 70 21.1 70 21.1 100 100 S 5 7 30.16 1021 10 16 N/A
6:52 am 06:52 Partly Cloudy 68 20 68 20 100 100 S 3 6 30.18 1022 10 16 N/A
7:52 am 07:52 Partly Cloudy 70 21.1 69 20.6 97 97 S 7 11 30.19 1022 10 16 N/A
8:52 am 08:52 Partly Cloudy 75 23.9 73 22.8 94 94 SSE 3 6 30.20 1023 10 16 N/A
9:52 am 09:52 Partly Cloudy 79 26.1 72 22.2 79 79 S 10 17 30.20 1023 10 16 N/A
10:52 am 10:52 Partly Cloudy 81 27.2 72 22.2 74 74 SSW 6 9 30.21 1023 10 16 N/A
11:52 am 11:52 Mostly Sunny 84 28.9 73 22.8 70 70 VRB 5 7 30.19 1022 10 16 N/A
12:52 pm 12:52 Partly Cloudy 86 30 73 22.8 65 65 VRB 7 11 30.17 1022 10 16 N/A
1:52 pm 13:52 Partly Cloudy 87 30.6 72 22.2 61 61 VRB 3 6 30.16 1022 10 16 N/A
2:52 pm 14:52 Partly Cloudy 89 31.7 71 21.7 55 55 W 5 7 30.15 1021 10 16 N/A
3:52 pm 15:52 Partly Cloudy 86 30 72 22.2 63 63 S 6 9 30.14 1021 10 16 N/A
4:52 pm 16:52 Partly Cloudy 89 31.7 72 22.2 57 57 SSW 8 13 30.13 1020 10 16 N/A
5:52 pm 17:52 Mostly Cloudy 88 31.1 72 22.2 59 59 SSW 8 13 30.12 1020 10 16 N/A
6:52 pm 18:52 Partly Cloudy 86 30 72 22.2 63 63 S 9 15 30.12 1020 10 16 N/A
7:52 pm 19:52 Mostly Sunny 83 28.3 72 22.2 70 70 SSW 6 9 30.11 1020 10 16 N/A
8:52 pm 20:52 Mostly Clear 79 26.1 72 22.2 79 79 SSE 6 9 30.12 1020 10 16 N/A
9:52 pm 21:52 Mostly Clear 79 26.1 72 22.2 79 79 SSE 5 7 30.15 1021 10 16 N/A
10:52 pm 22:52 Clear 79 26.1 72 22.2 79 79 S 3 6 30.17 1022 10 16 N/A
11:52 pm 23:52 Clear 77 25 72 22.2 85 85 S 6 9 30.18 1022 10 16 N/A

Powered by AerisWeather